Location: Borbetomagus
(49.6328°N, 8.3592°E)
Time: 16:27:31
(UTC+00:00)

Cosmos 2058 Rocket - Pass Details

Date: 19 May 2025
Orbit: 604 x 634 km, 82.5° (Epoch: 17 June)

Event Time Altitude Azimuth Distance (km) Brightness Sun altitude
Rises 20:37:11 0° 199° (SSW) 2,918 6.2 -11.3°
Reaches altitude 10° 20:39:27 10° 203° (SSW) 2,012 5.4 -11.5°
Maximum altitude 20:43:51 59° 283° (WNW) 736 3.7 -12.0°
Drops below altitude 10° 20:48:16 10° 3° (N) 2,015 6.5 -12.4°
Sets 20:50:33 0° 8° (N) 2,923 7.3 -12.6°
